Butler, GA

3:12 AM EST on December 08, 2019 (GMT -0500)
Butler

Weather History for K6A1 - October, 2019

Change the Weather History Date:

Monday, October 28, 2019

  Actual Average (KMCN) Record (KMCN)
Temperature  
Mean Temperature 64 °F -  
Max Temperature 78 °F 75 °F 89 °F (1984)
Min Temperature 50 °F 48 °F 27 °F (2001)
Degree Days  
Heating Degree Days 1    
Growing Degree Days 14 (Base 50)    
Moisture  
Dew Point 54 °F    
Average Humidity 73    
Maximum Humidity 99    
Minimum Humidity 38    
Precipitation  
Precipitation 0.00 in - - ()
Sea Level Pressure  
Sea Level Pressure 30.07 in    
Wind  
Wind Speed 1 mph ()    
Max Wind Speed 7 mph    
Max Gust Speed -    
Visibility 9.7 miles    
Events Fog    
Averages and records for this station are not official NWS values.
T = Trace of Precipitation, MM = Missing Value Source: Averaged Metar Reports

Daily Weather History Graph

Daily Weather History Graph

Search for Another Location

Airport or City:

Astronomy

Oct. 28, 2019 Rise Set
Actual Time 7:50 AM EDT 6:50 PM EDT
Civil Twilight 7:25 AM EDT 7:15 PM EDT
Nautical Twilight 6:56 AM EDT 7:44 PM EDT
Astronomical Twilight 6:28 AM EDT 8:12 PM EDT
Moon 8:12 AM EDT (10/28) 7:35 PM EDT (10/28)
Length of Visible Light 11h 49m
Length of Day
10h 59m
New Moon, 0% of the Moon is Illuminated
Oct 28
New Moon
Nov 4
First Quarter
Nov 12
Full
Nov 19
Last Quarter
Nov 26
New

Hourly Weather History & Observations

Time (EDT) Temp. Dew Point Humidity Pressure Visibility Wind Dir Wind Speed Gust Speed Precip Events Conditions
12:15 AM 57.6 °F 54.1 °F 88% 30.04 in 10.0 mi North 3.5 mph - N/A   Unknown
12:35 AM 57.7 °F 54.5 °F 89% 30.03 in 10.0 mi Calm Calm - N/A   Unknown
12:55 AM 57.4 °F 54.1 °F 89% 30.03 in 10.0 mi Calm Calm - N/A   Unknown
1:15 AM 55.8 °F 53.1 °F 91% 30.03 in 10.0 mi Calm Calm - N/A   Unknown
1:35 AM 56.1 °F 53.6 °F 91% 30.03 in 10.0 mi Calm Calm - N/A   Unknown
1:55 AM 55.4 °F 53.8 °F 94% 30.03 in 10.0 mi Calm Calm - N/A   Unknown
2:15 AM 55.6 °F 54.0 °F 94% 30.04 in 10.0 mi Calm Calm - N/A   Unknown
2:35 AM 55.6 °F 53.2 °F 92% 30.04 in 10.0 mi Calm Calm - N/A   Unknown
2:55 AM 52.9 °F 51.3 °F 94% 30.04 in 10.0 mi Calm Calm - N/A   Unknown
3:15 AM 53.4 °F 52.7 °F 97% 30.04 in 10.0 mi Calm Calm - N/A   Unknown
3:35 AM 53.2 °F 52.3 °F 97% 30.04 in 10.0 mi Calm Calm - N/A   Unknown
3:55 AM 54.7 °F 53.6 °F 96% 30.04 in 10.0 mi Calm Calm - N/A   Unknown
4:15 AM 54.7 °F 53.1 °F 94% 30.04 in 10.0 mi Calm Calm - N/A   Unknown
4:35 AM 53.8 °F 52.3 °F 95% 30.04 in 10.0 mi Calm Calm - N/A   Unknown
4:55 AM 52.7 °F 51.8 °F 97% 30.04 in 10.0 mi Calm Calm - N/A   Unknown
5:15 AM 51.1 °F 50.4 °F 97% 30.05 in 10.0 mi Calm Calm - N/A   Unknown
5:35 AM 52.9 °F 52.5 °F 99% 30.05 in 10.0 mi Calm Calm - N/A   Unknown
5:55 AM 52.5 °F 52.0 °F 98% 30.06 in 10.0 mi Calm Calm - N/A   Unknown
6:15 AM 51.6 °F 51.3 °F 99% 30.06 in 10.0 mi Calm Calm - N/A   Unknown
6:35 AM 51.3 °F 50.7 °F 98% 30.07 in 7.0 mi Calm Calm - N/A   Unknown
6:55 AM 51.6 °F 51.1 °F 98% 30.08 in 10.0 mi Calm Calm - N/A   Unknown
7:15 AM 52.7 °F 52.3 °F 99% 30.08 in 10.0 mi Calm Calm - N/A   Unknown
7:35 AM 51.4 °F 50.9 °F 98% 30.08 in 10.0 mi Calm Calm - N/A   Unknown
7:55 AM 50.9 °F 50.4 °F 98% 30.08 in 1.0 mi Calm Calm - N/A   Mist
8:15 AM 51.6 °F 51.3 °F 99% 30.09 in 0.5 mi Calm Calm - N/A Fog Fog
8:35 AM 53.2 °F 52.9 °F 99% 30.09 in 10.0 mi Calm Calm - N/A   Unknown
8:55 AM 54.9 °F 54.5 °F 99% 30.10 in 10.0 mi Calm Calm - N/A   Unknown
9:15 AM 56.3 °F 54.5 °F 94% 30.11 in 10.0 mi NNE 3.5 mph - N/A   Unknown
9:55 AM 60.6 °F 55.4 °F 83% 30.12 in 10.0 mi Calm Calm - N/A   Unknown
10:15 AM 61.5 °F 55.0 °F 79% 30.12 in 10.0 mi Calm Calm - N/A   Unknown
10:35 AM 64.6 °F 56.7 °F 75% 30.12 in 10.0 mi Calm Calm - N/A   Unknown
10:55 AM 67.1 °F 56.5 °F 69% 30.12 in 10.0 mi South 3.5 mph - N/A   Unknown
11:15 AM 68.0 °F 55.6 °F 64% 30.12 in 10.0 mi Calm Calm - N/A   Unknown
11:35 AM 70.2 °F 55.6 °F 60% 30.12 in 10.0 mi Calm Calm - N/A   Unknown
11:55 AM 70.2 °F 55.4 °F 59% 30.12 in 10.0 mi NW 3.5 mph - N/A   Unknown
12:15 PM 72.0 °F 54.5 °F 54% 30.12 in 10.0 mi SW 5.8 mph - N/A   Unknown
12:35 PM 72.7 °F 54.1 °F 52% 30.11 in 10.0 mi South 3.5 mph - N/A   Unknown
12:55 PM 74.1 °F 54.1 °F 50% 30.11 in 10.0 mi Calm Calm - N/A   Unknown
1:15 PM 73.6 °F 51.1 °F 45% 30.10 in 10.0 mi West 4.6 mph - N/A   Unknown
1:35 PM 75.6 °F 52.7 °F 45% 30.09 in 10.0 mi SW 3.5 mph - N/A   Unknown
1:55 PM 75.9 °F 53.4 °F 45% 30.08 in 10.0 mi Calm Calm - N/A   Unknown
2:15 PM 75.7 °F 52.7 °F 45% 30.07 in 10.0 mi East 3.5 mph - N/A   Unknown
2:35 PM 76.8 °F 52.9 °F 43% 30.06 in 10.0 mi SW 3.5 mph - N/A   Unknown
2:55 PM 77.9 °F 53.1 °F 42% 30.06 in 10.0 mi SSE 4.6 mph - N/A   Unknown
3:15 PM 77.4 °F 52.9 °F 42% 30.06 in 10.0 mi Calm Calm - N/A   Unknown
3:35 PM 78.8 °F 52.0 °F 39% 30.05 in 10.0 mi SSE 5.8 mph - N/A   Unknown
3:55 PM 78.8 °F 50.9 °F 38% 30.05 in 10.0 mi South 3.5 mph - N/A   Unknown
4:15 PM 78.6 °F 51.1 °F 38% 30.05 in 10.0 mi South 6.9 mph - N/A   Unknown
4:35 PM 78.6 °F 50.9 °F 38% 30.05 in 10.0 mi SSE 3.5 mph - N/A   Unknown
4:55 PM 78.8 °F 52.0 °F 39% 30.05 in 10.0 mi ESE 4.6 mph - N/A   Unknown
5:15 PM 78.1 °F 52.5 °F 41% 30.05 in 10.0 mi South 3.5 mph - N/A   Unknown
5:35 PM 77.9 °F 52.3 °F 41% 30.05 in 10.0 mi South 4.6 mph - N/A   Unknown
5:55 PM 76.8 °F 52.5 °F 43% 30.06 in 10.0 mi South 3.5 mph - N/A   Unknown
6:15 PM 75.7 °F 53.4 °F 46% 30.06 in 10.0 mi South 3.5 mph - N/A   Unknown
6:35 PM 73.9 °F 54.9 °F 51% 30.07 in 10.0 mi South 3.5 mph - N/A   Unknown
6:55 PM 71.6 °F 55.8 °F 57% 30.07 in 10.0 mi Calm Calm - N/A   Unknown
7:15 PM 68.0 °F 55.9 °F 65% 30.07 in 10.0 mi Calm Calm - N/A   Unknown
7:35 PM 66.4 °F 56.7 °F 71% 30.07 in 10.0 mi Calm Calm - N/A   Unknown
7:55 PM 70.3 °F 56.3 °F 61% 30.08 in 10.0 mi Calm Calm - N/A   Unknown
8:15 PM 65.3 °F 56.3 °F 73% 30.08 in 10.0 mi Calm Calm - N/A   Unknown
8:35 PM 64.8 °F 56.7 °F 75% 30.08 in 10.0 mi Calm Calm - N/A   Unknown
8:55 PM 67.1 °F 56.5 °F 69% 30.08 in 10.0 mi South 3.5 mph - N/A   Unknown
9:35 PM 64.2 °F 56.7 °F 76% 30.09 in 10.0 mi Calm Calm - N/A   Unknown
9:55 PM 63.0 °F 56.3 °F 79% 30.10 in 10.0 mi Calm Calm - N/A   Unknown
10:15 PM 63.1 °F 56.3 °F 78% 30.10 in 10.0 mi Calm Calm - N/A   Unknown
10:35 PM 63.9 °F 55.9 °F 75% 30.11 in 10.0 mi Calm Calm - N/A   Unknown
10:55 PM 62.6 °F 56.3 °F 80% 30.11 in 10.0 mi Calm Calm - N/A   Unknown
11:15 PM 63.1 °F 55.9 °F 77% 30.12 in 10.0 mi Calm Calm - N/A   Unknown
11:35 PM 62.8 °F 55.9 °F 78% 30.12 in 10.0 mi Calm Calm - N/A   Unknown
11:55 PM 62.6 °F 56.5 °F 80% 30.11 in 10.0 mi Calm Calm - N/A   Unknown